Flood From: 22-02-2018 16:00 Until: 23-02-2018 16:00 warning for: Flood Level: Yellow info button

Although rather usual in this region, locally or potentially dangerous phenomena are expected. (such as local winds, summer thunderstorms, rising streams or high waves) Be aware and pay attention to the latest weather updates, especially if you carry out activities exposed to weather or close to a stream or shoreline. 


Meteo18 Weather Cam more information Meteo18 Weather Cam


Thunder radar more information blitzortung!


Rain radar more information rain snow radar


Visit our other weather sites:

Template documentation
and downloads

And another site



Weather Underground History page Text

Daily Summary for June 21, 2017 Units:  Both    English   Metric
« Previous Day
Next Day »
Daily Weekly Monthly Yearly Custom
  High: Low: Average:
Temperature: TemperatureC °F /  -17.8 °C 19.2 °F /  -7.1 °C 27.9 °F /  -2.3 °C
Dew Point: DewpointC °F /  -17.8 °C 17.2 °F /  -8.2 °C 19.1 °F /  -7.2 °C
Humidity: Humidity % 36 % 62 %
Wind Speed: WindSpeedKMH mph /  0 km/h - 2.6 mph /  4.2 km/h
Wind Gust: WindSpeedGustKMH mph /  0 km/h - -
Wind:- - SW
Pressure: PressurehPa in /  0 hPa 1014.4 in /  34347.6 hPa -
Precipitation: 0.0 in /  0 mm    
Historical Graphs
 
 
Tabular Data for June 21, 2017
Time Temperature Dew Point Pressure Wind Wind Speed Wind Gust Humidity Rainfall Rate (Hourly)
TemperatureC °F /  -17.8 °C DewpointC °F /  -17.8 °C PressurehPa in /  0 hPa Calm     Humidity % HourlyPrecipMM in /  0 mm
00:02 22.9 °F /  -5.1 °C 18.9 °F /  -7.3 °C 1016.5 in /  34418.7 hPa West 4.8 mph /  7.7 km/h 20.9 mph /  33.6 km/h 78 % 0.0 in /  0 mm
00:12 22.8 °F /  -5.1 °C 18.8 °F /  -7.3 °C 1016.8 in /  34428.8 hPa Calm   12.9 mph /  20.8 km/h 78 % 0.0 in /  0 mm
00:17 22.9 °F /  -5.1 °C 18.9 °F /  -7.3 °C 1016.5 in /  34418.7 hPa Calm   12.9 mph /  20.8 km/h 78 % 0.0 in /  0 mm
00:22 22.9 °F /  -5.1 °C 18.9 °F /  -7.3 °C 1016.5 in /  34418.7 hPa Calm   12.9 mph /  20.8 km/h 78 % 0.0 in /  0 mm
00:32 22.7 °F /  -5.2 °C 18.9 °F /  -7.3 °C 1016.5 in /  34418.7 hPa NW 3.2 mph /  5.1 km/h 4.8 mph /  7.7 km/h 79 % 0.0 in /  0 mm
00:37 22.7 °F /  -5.2 °C 18.9 °F /  -7.3 °C 1016.5 in /  34418.7 hPa NNE 4.8 mph /  7.7 km/h 4.8 mph /  7.7 km/h 79 % 0.0 in /  0 mm
00:42 22.8 °F /  -5.1 °C 18.8 °F /  -7.3 °C 1016.5 in /  34418.7 hPa North 3.2 mph /  5.1 km/h 6.4 mph /  10.3 km/h 78 % 0.0 in /  0 mm
00:47 22.7 °F /  -5.2 °C 18.9 °F /  -7.3 °C 1016.1 in /  34405.1 hPa NNE 6.4 mph /  10.3 km/h 8.0 mph /  12.9 km/h 79 % 0.0 in /  0 mm
00:52 22.7 °F /  -5.2 °C 18.9 °F /  -7.3 °C 1016.1 in /  34405.1 hPa NE 4.8 mph /  7.7 km/h 8.0 mph /  12.9 km/h 79 % 0.0 in /  0 mm
00:57 22.7 °F /  -5.2 °C 19.1 °F /  -7.2 °C 1016.5 in /  34418.7 hPa ENE 9.7 mph /  15.6 km/h 9.7 mph /  15.6 km/h 80 % 0.0 in /  0 mm
01:02 22.9 °F /  -5.1 °C 18.4 °F /  -7.6 °C 1016.1 in /  34405.1 hPa NE 6.4 mph /  10.3 km/h 9.7 mph /  15.6 km/h 76 % 0.0 in /  0 mm
01:12 23.1 °F /  -4.9 °C 18.6 °F /  -7.4 °C 1016.1 in /  34405.1 hPa Calm   12.9 mph /  20.8 km/h 76 % 0.0 in /  0 mm
01:17 22.9 °F /  -5.1 °C 18.4 °F /  -7.6 °C 1016.1 in /  34405.1 hPa North 1.6 mph /  2.6 km/h 9.7 mph /  15.6 km/h 76 % 0.0 in /  0 mm
01:22 22.9 °F /  -5.1 °C 18.4 °F /  -7.6 °C 1015.8 in /  34395 hPa North 1.6 mph /  2.6 km/h 9.7 mph /  15.6 km/h 76 % 0.0 in /  0 mm
01:27 22.8 °F /  -5.1 °C 18.6 °F /  -7.4 °C 1015.8 in /  34395 hPa Calm   4.8 mph /  7.7 km/h 77 % 0.0 in /  0 mm
01:32 22.6 °F /  -5.2 °C 18.6 °F /  -7.4 °C 1015.8 in /  34395 hPa Calm   4.8 mph /  7.7 km/h 78 % 0.0 in /  0 mm
01:42 22.8 °F /  -5.1 °C 18.3 °F /  -7.6 °C 1015.8 in /  34395 hPa NE 1.6 mph /  2.6 km/h 9.7 mph /  15.6 km/h 76 % 0.0 in /  0 mm
01:47 22.7 °F /  -5.2 °C 18.2 °F /  -7.7 °C 1015.8 in /  34395 hPa Calm   9.7 mph /  15.6 km/h 76 % 0.0 in /  0 mm
01:52 22.6 °F /  -5.2 °C 18.4 °F /  -7.6 °C 1015.8 in /  34395 hPa Calm   9.7 mph /  15.6 km/h 77 % 0.0 in /  0 mm
01:57 22.3 °F /  -5.4 °C 18.5 °F /  -7.5 °C 1015.8 in /  34395 hPa Calm   4.8 mph /  7.7 km/h 79 % 0.0 in /  0 mm
02:02 22.0 °F /  -5.6 °C 18.4 °F /  -7.6 °C 1015.8 in /  34395 hPa Calm   4.8 mph /  7.7 km/h 80 % 0.0 in /  0 mm
02:07 21.8 °F /  -5.7 °C 18.4 °F /  -7.6 °C 1015.8 in /  34395 hPa Calm   4.8 mph /  7.7 km/h 81 % 0.0 in /  0 mm
02:12 21.8 °F /  -5.7 °C 18.4 °F /  -7.6 °C 1015.8 in /  34395 hPa Calm   1.6 mph /  2.6 km/h 81 % 0.0 in /  0 mm
02:17 21.6 °F /  -5.8 °C 18.4 °F /  -7.6 °C 1015.8 in /  34395 hPa Calm   1.6 mph /  2.6 km/h 82 % 0.0 in /  0 mm
02:22 21.4 °F /  -5.9 °C 18.4 °F /  -7.6 °C 1016.1 in /  34405.1 hPa Calm   1.6 mph /  2.6 km/h 83 % 0.0 in /  0 mm
02:27 21.3 °F /  -5.9 °C 18.3 °F /  -7.6 °C 1016.1 in /  34405.1 hPa Calm   1.6 mph /  2.6 km/h 83 % 0.0 in /  0 mm
02:32 21.1 °F /  -6.1 °C 18.3 °F /  -7.6 °C 1016.1 in /  34405.1 hPa West 1.6 mph /  2.6 km/h 1.6 mph /  2.6 km/h 84 % 0.0 in /  0 mm
02:42 21.0 °F /  -6.1 °C 18.4 °F /  -7.6 °C 1016.1 in /  34405.1 hPa East 3.2 mph /  5.1 km/h 3.2 mph /  5.1 km/h 85 % 0.0 in /  0 mm
02:47 20.9 °F /  -6.2 °C 18.1 °F /  -7.7 °C 1016.1 in /  34405.1 hPa East 1.6 mph /  2.6 km/h 4.8 mph /  7.7 km/h 84 % 0.0 in /  0 mm
02:52 20.9 °F /  -6.2 °C 18.3 °F /  -7.6 °C 1015.8 in /  34395 hPa Calm   4.8 mph /  7.7 km/h 85 % 0.0 in /  0 mm
02:57 20.8 °F /  -6.2 °C 18.2 °F /  -7.7 °C 1016.1 in /  34405.1 hPa SSE 1.6 mph /  2.6 km/h 4.8 mph /  7.7 km/h 85 % 0.0 in /  0 mm
03:02 20.6 °F /  -6.3 °C 18.2 °F /  -7.7 °C 1016.1 in /  34405.1 hPa SSE 3.2 mph /  5.1 km/h 4.8 mph /  7.7 km/h 86 % 0.0 in /  0 mm
03:07 20.6 °F /  -6.3 °C 18.2 °F /  -7.7 °C 1015.8 in /  34395 hPa Calm   3.2 mph /  5.1 km/h 86 % 0.0 in /  0 mm
03:12 20.6 °F /  -6.3 °C 18.4 °F /  -7.6 °C 1016.1 in /  34405.1 hPa NE 1.6 mph /  2.6 km/h 3.2 mph /  5.1 km/h 87 % 0.0 in /  0 mm
03:17 21.1 °F /  -6.1 °C 18.3 °F /  -7.6 °C 1016.1 in /  34405.1 hPa WNW 3.2 mph /  5.1 km/h 3.2 mph /  5.1 km/h 84 % 0.0 in /  0 mm
03:22 20.6 °F /  -6.3 °C 18.2 °F /  -7.7 °C 1016.1 in /  34405.1 hPa WNW 3.2 mph /  5.1 km/h 6.4 mph /  10.3 km/h 86 % 0.0 in /  0 mm
03:32 20.2 °F /  -6.6 °C 18.1 °F /  -7.7 °C 1016.1 in /  34405.1 hPa Calm   6.4 mph /  10.3 km/h 88 % 0.0 in /  0 mm
03:37 20.2 °F /  -6.6 °C 18.3 °F /  -7.6 °C 1016.1 in /  34405.1 hPa West 1.6 mph /  2.6 km/h 6.4 mph /  10.3 km/h 89 % 0.0 in /  0 mm
03:42 20.2 °F /  -6.6 °C 18.3 °F /  -7.6 °C 1015.8 in /  34395 hPa WNW 3.2 mph /  5.1 km/h 6.4 mph /  10.3 km/h 89 % 0.0 in /  0 mm
03:47 20.0 °F /  -6.7 °C 18.0 °F /  -7.8 °C 1015.8 in /  34395 hPa WNW 3.2 mph /  5.1 km/h 3.2 mph /  5.1 km/h 88 % 0.0 in /  0 mm
03:52 19.9 °F /  -6.7 °C 18.0 °F /  -7.8 °C 1016.1 in /  34405.1 hPa Calm   3.2 mph /  5.1 km/h 89 % 0.0 in /  0 mm
04:02 20.1 °F /  -6.6 °C 18.2 °F /  -7.7 °C 1016.1 in /  34405.1 hPa Calm   3.2 mph /  5.1 km/h 89 % 0.0 in /  0 mm
04:07 20.3 °F /  -6.5 °C 18.2 °F /  -7.7 °C 1016.1 in /  34405.1 hPa WNW 1.6 mph /  2.6 km/h 4.8 mph /  7.7 km/h 88 % 0.0 in /  0 mm
04:12 20.6 °F /  -6.3 °C 18.4 °F /  -7.6 °C 1016.1 in /  34405.1 hPa NW 1.6 mph /  2.6 km/h 4.8 mph /  7.7 km/h 87 % 0.0 in /  0 mm
04:17 20.7 °F /  -6.3 °C 18.3 °F /  -7.6 °C 1016.1 in /  34405.1 hPa WNW 1.6 mph /  2.6 km/h 3.2 mph /  5.1 km/h 86 % 0.0 in /  0 mm
04:22 20.6 °F /  -6.3 °C 18.2 °F /  -7.7 °C 1015.8 in /  34395 hPa Calm   3.2 mph /  5.1 km/h 86 % 0.0 in /  0 mm
04:27 20.6 °F /  -6.3 °C 18.4 °F /  -7.6 °C 1015.8 in /  34395 hPa Calm   3.2 mph /  5.1 km/h 87 % 0.0 in /  0 mm
04:37 20.8 °F /  -6.2 °C 18.2 °F /  -7.7 °C 1015.8 in /  34395 hPa Calm   3.2 mph /  5.1 km/h 85 % 0.0 in /  0 mm
04:42 20.7 °F /  -6.3 °C 18.3 °F /  -7.6 °C 1015.8 in /  34395 hPa Calm     86 % 0.0 in /  0 mm
04:47 20.5 °F /  -6.4 °C 18.1 °F /  -7.7 °C 1015.8 in /  34395 hPa Calm   1.6 mph /  2.6 km/h 86 % 0.0 in /  0 mm
04:52 20.6 °F /  -6.3 °C 18.2 °F /  -7.7 °C 1015.8 in /  34395 hPa NW 3.2 mph /  5.1 km/h 3.2 mph /  5.1 km/h 86 % 0.0 in /  0 mm
05:02 21.2 °F /  -6 °C 18.2 °F /  -7.7 °C 1015.8 in /  34395 hPa Calm   4.8 mph /  7.7 km/h 83 % 0.0 in /  0 mm
05:12 20.3 °F /  -6.5 °C 17.5 °F /  -8.1 °C 1015.8 in /  34395 hPa Calm   4.8 mph /  7.7 km/h 84 % 0.0 in /  0 mm
05:22 19.6 °F /  -6.9 °C 17.6 °F /  -8 °C 1015.8 in /  34395 hPa Calm   3.2 mph /  5.1 km/h 88 % 0.0 in /  0 mm
05:32 19.4 °F /  -7 °C 17.7 °F /  -7.9 °C 1015.8 in /  34395 hPa Calm   3.2 mph /  5.1 km/h 90 % 0.0 in /  0 mm
05:42 19.4 °F /  -7 °C 17.7 °F /  -7.9 °C 1016.1 in /  34405.1 hPa Calm     90 % 0.0 in /  0 mm
05:47 19.4 °F /  -7 °C 17.7 °F /  -7.9 °C 1016.1 in /  34405.1 hPa Calm     90 % 0.0 in /  0 mm
05:52 19.4 °F /  -7 °C 17.7 °F /  -7.9 °C 1016.1 in /  34405.1 hPa Calm     90 % 0.0 in /  0 mm
06:02 19.3 °F /  -7.1 °C 17.6 °F /  -8 °C 1016.1 in /  34405.1 hPa Calm     90 % 0.0 in /  0 mm
06:12 19.2 °F /  -7.1 °C 17.7 °F /  -7.9 °C 1016.1 in /  34405.1 hPa Calm     91 % 0.0 in /  0 mm
06:17 19.2 °F /  -7.1 °C 17.7 °F /  -7.9 °C 1016.1 in /  34405.1 hPa Calm     91 % 0.0 in /  0 mm
06:22 19.3 °F /  -7.1 °C 17.8 °F /  -7.9 °C 1016.1 in /  34405.1 hPa Calm     91 % 0.0 in /  0 mm
06:27 19.2 °F /  -7.1 °C 17.7 °F /  -7.9 °C 1016.1 in /  34405.1 hPa Calm     91 % 0.0 in /  0 mm
06:32 19.2 °F /  -7.1 °C 17.7 °F /  -7.9 °C 1016.1 in /  34405.1 hPa Calm     91 % 0.0 in /  0 mm
06:42 19.3 °F /  -7.1 °C 17.6 °F /  -8 °C 1016.1 in /  34405.1 hPa Calm     90 % 0.0 in /  0 mm
06:47 19.5 °F /  -6.9 °C 18.0 °F /  -7.8 °C 1016.1 in /  34405.1 hPa Calm     91 % 0.0 in /  0 mm
06:52 19.8 °F /  -6.8 °C 18.3 °F /  -7.6 °C 1016.1 in /  34405.1 hPa Calm     91 % 0.0 in /  0 mm
06:57 20.3 °F /  -6.5 °C 18.6 °F /  -7.4 °C 1016.1 in /  34405.1 hPa Calm     90 % 0.0 in /  0 mm
07:02 20.5 °F /  -6.4 °C 18.4 °F /  -7.6 °C 1016.1 in /  34405.1 hPa Calm     88 % 0.0 in /  0 mm
07:12 21.2 °F /  -6 °C 18.8 °F /  -7.3 °C 1016.1 in /  34405.1 hPa Calm     86 % 0.0 in /  0 mm
07:17 21.1 °F /  -6.1 °C 18.7 °F /  -7.4 °C 1016.1 in /  34405.1 hPa Calm     86 % 0.0 in /  0 mm
07:22 21.5 °F /  -5.8 °C 19.2 °F /  -7.1 °C 1016.1 in /  34405.1 hPa Calm     87 % 0.0 in /  0 mm
07:32 22.2 °F /  -5.4 °C 19.2 °F /  -7.1 °C 1016.1 in /  34405.1 hPa Calm     83 % 0.0 in /  0 mm
07:42 22.3 °F /  -5.4 °C 19.3 °F /  -7.1 °C 1016.1 in /  34405.1 hPa Calm     83 % 0.0 in /  0 mm
07:47 22.9 °F /  -5.1 °C 19.5 °F /  -6.9 °C 1016.1 in /  34405.1 hPa Calm     81 % 0.0 in /  0 mm
07:52 23.3 °F /  -4.8 °C 19.7 °F /  -6.8 °C 1016.1 in /  34405.1 hPa Calm     80 % 0.0 in /  0 mm
07:57 23.7 °F /  -4.6 °C 19.8 °F /  -6.8 °C 1016.1 in /  34405.1 hPa Calm     79 % 0.0 in /  0 mm
08:02 24.0 °F /  -4.4 °C 20.1 °F /  -6.6 °C 1016.1 in /  34405.1 hPa Calm     79 % 0.0 in /  0 mm
08:12 23.9 °F /  -4.5 °C 20.2 °F /  -6.6 °C 1016.5 in /  34418.7 hPa Calm     80 % 0.0 in /  0 mm
08:17 24.2 °F /  -4.3 °C 20.5 °F /  -6.4 °C 1016.5 in /  34418.7 hPa Calm     80 % 0.0 in /  0 mm
08:22 25.0 °F /  -3.9 °C 20.9 °F /  -6.2 °C 1016.5 in /  34418.7 hPa Calm     78 % 0.0 in /  0 mm
08:32 25.6 °F /  -3.6 °C 20.6 °F /  -6.3 °C 1016.5 in /  34418.7 hPa Calm     74 % 0.0 in /  0 mm
08:37 25.9 °F /  -3.4 °C 20.7 °F /  -6.3 °C 1016.5 in /  34418.7 hPa Calm     73 % 0.0 in /  0 mm
08:47 26.6 °F /  -3 °C 20.4 °F /  -6.4 °C 1016.5 in /  34418.7 hPa Calm     69 % 0.0 in /  0 mm
08:57 26.8 °F /  -2.9 °C 20.4 °F /  -6.4 °C 1016.5 in /  34418.7 hPa Calm     68 % 0.0 in /  0 mm
09:02 26.4 °F /  -3.1 °C 20.0 °F /  -6.7 °C 1016.5 in /  34418.7 hPa SSW 3.2 mph /  5.1 km/h   68 % 0.0 in /  0 mm
09:12 26.1 °F /  -3.3 °C 20.2 °F /  -6.6 °C 1016.5 in /  34418.7 hPa SW 1.6 mph /  2.6 km/h 4.8 mph /  7.7 km/h 70 % 0.0 in /  0 mm
09:17 26.4 °F /  -3.1 °C 20.7 °F /  -6.3 °C 1016.5 in /  34418.7 hPa SSE 3.2 mph /  5.1 km/h 6.4 mph /  10.3 km/h 71 % 0.0 in /  0 mm
09:27 26.9 °F /  -2.8 °C 21.0 °F /  -6.1 °C 1016.5 in /  34418.7 hPa SW 1.6 mph /  2.6 km/h 4.8 mph /  7.7 km/h 70 % 0.0 in /  0 mm
09:32 27.1 °F /  -2.7 °C 20.9 °F /  -6.2 °C 1016.5 in /  34418.7 hPa SE 3.2 mph /  5.1 km/h 4.8 mph /  7.7 km/h 69 % 0.0 in /  0 mm
09:42 27.0 °F /  -2.8 °C 20.3 °F /  -6.5 °C 1016.5 in /  34418.7 hPa WSW 3.2 mph /  5.1 km/h 4.8 mph /  7.7 km/h 67 % 0.0 in /  0 mm
09:47 27.1 °F /  -2.7 °C 20.7 °F /  -6.3 °C 1016.5 in /  34418.7 hPa SSE 3.2 mph /  5.1 km/h 8.0 mph /  12.9 km/h 68 % 0.0 in /  0 mm
09:52 27.3 °F /  -2.6 °C 20.1 °F /  -6.6 °C 1016.5 in /  34418.7 hPa SSW 4.8 mph /  7.7 km/h 8.0 mph /  12.9 km/h 65 % 0.0 in /  0 mm
10:02 27.6 °F /  -2.4 °C 19.7 °F /  -6.8 °C 1016.5 in /  34418.7 hPa South 3.2 mph /  5.1 km/h 8.0 mph /  12.9 km/h 62 % 0.0 in /  0 mm
10:12 28.1 °F /  -2.2 °C 20.6 °F /  -6.3 °C 1016.5 in /  34418.7 hPa SSW 1.6 mph /  2.6 km/h 6.4 mph /  10.3 km/h 64 % 0.0 in /  0 mm
10:17 28.5 °F /  -1.9 °C 20.2 °F /  -6.6 °C 1016.5 in /  34418.7 hPa SSW 3.2 mph /  5.1 km/h 6.4 mph /  10.3 km/h 61 % 0.0 in /  0 mm
10:22 28.8 °F /  -1.8 °C 20.5 °F /  -6.4 °C 1016.5 in /  34418.7 hPa SSW 4.8 mph /  7.7 km/h 6.4 mph /  10.3 km/h 61 % 0.0 in /  0 mm
10:27 28.7 °F /  -1.8 °C 19.9 °F /  -6.7 °C 1016.5 in /  34418.7 hPa Calm   6.4 mph /  10.3 km/h 59 % 0.0 in /  0 mm
10:32 28.9 °F /  -1.7 °C 20.6 °F /  -6.3 °C 1016.5 in /  34418.7 hPa SSW 3.2 mph /  5.1 km/h 6.4 mph /  10.3 km/h 61 % 0.0 in /  0 mm
10:42 29.7 °F /  -1.3 °C 20.6 °F /  -6.3 °C 1016.5 in /  34418.7 hPa SSW 3.2 mph /  5.1 km/h 8.0 mph /  12.9 km/h 58 % 0.0 in /  0 mm
10:47 29.7 °F /  -1.3 °C 20.3 °F /  -6.5 °C 1016.5 in /  34418.7 hPa SSW 4.8 mph /  7.7 km/h 8.0 mph /  12.9 km/h 57 % 0.0 in /  0 mm
10:57 29.7 °F /  -1.3 °C 20.6 °F /  -6.3 °C 1016.5 in /  34418.7 hPa SSW 4.8 mph /  7.7 km/h 9.7 mph /  15.6 km/h 58 % 0.0 in /  0 mm
11:02 30.1 °F /  -1.1 °C 20.9 °F /  -6.2 °C 1016.5 in /  34418.7 hPa SW 3.2 mph /  5.1 km/h 9.7 mph /  15.6 km/h 58 % 0.0 in /  0 mm
11:12 30.3 °F /  -0.9 °C 20.2 °F /  -6.6 °C 1016.5 in /  34418.7 hPa SW 4.8 mph /  7.7 km/h 9.7 mph /  15.6 km/h 55 % 0.0 in /  0 mm
11:17 30.3 °F /  -0.9 °C 20.2 °F /  -6.6 °C 1016.5 in /  34418.7 hPa SSW 3.2 mph /  5.1 km/h 8.0 mph /  12.9 km/h 55 % 0.0 in /  0 mm
11:22 30.6 °F /  -0.8 °C 19.9 °F /  -6.7 °C 1016.5 in /  34418.7 hPa SW 1.6 mph /  2.6 km/h 8.0 mph /  12.9 km/h 53 % 0.0 in /  0 mm
11:32 31.1 °F /  -0.5 °C 20.4 °F /  -6.4 °C 1016.5 in /  34418.7 hPa SW 8.0 mph /  12.9 km/h 9.7 mph /  15.6 km/h 53 % 0.0 in /  0 mm
11:37 31.2 °F /  -0.4 °C 19.5 °F /  -6.9 °C 1016.5 in /  34418.7 hPa SSW 4.8 mph /  7.7 km/h 9.7 mph /  15.6 km/h 50 % 0.0 in /  0 mm
11:42 31.3 °F /  -0.4 °C 20.3 °F /  -6.5 °C 1016.5 in /  34418.7 hPa SSW 3.2 mph /  5.1 km/h 9.7 mph /  15.6 km/h 52 % 0.0 in /  0 mm
11:52 31.6 °F /  -0.2 °C 20.5 °F /  -6.4 °C 1016.5 in /  34418.7 hPa SW 3.2 mph /  5.1 km/h 11.3 mph /  18.2 km/h 52 % 0.0 in /  0 mm
11:57 31.7 °F /  -0.2 °C 20.0 °F /  -6.7 °C 1016.5 in /  34418.7 hPa SW 8.0 mph /  12.9 km/h 11.3 mph /  18.2 km/h 50 % 0.0 in /  0 mm
12:02 31.8 °F /  -0.1 °C 20.4 °F /  -6.4 °C 1016.5 in /  34418.7 hPa SW 8.0 mph /  12.9 km/h 11.3 mph /  18.2 km/h 51 % 0.0 in /  0 mm
12:12 31.8 °F /  -0.1 °C 20.1 °F /  -6.6 °C 1016.5 in /  34418.7 hPa WSW 4.8 mph /  7.7 km/h 12.9 mph /  20.8 km/h 50 % 0.0 in /  0 mm
12:17 31.8 °F /  -0.1 °C 20.7 °F /  -6.3 °C 1016.5 in /  34418.7 hPa SW 4.8 mph /  7.7 km/h 12.9 mph /  20.8 km/h 52 % 0.0 in /  0 mm
12:22 32.2 °F /  0.1 °C 20.8 °F /  -6.2 °C 1016.5 in /  34418.7 hPa Calm   12.9 mph /  20.8 km/h 51 % 0.0 in /  0 mm
12:32 32.8 °F /  0.4 °C 20.7 °F /  -6.3 °C 1016.5 in /  34418.7 hPa SW 9.7 mph /  15.6 km/h 12.9 mph /  20.8 km/h 49 % 0.0 in /  0 mm
12:42 32.2 °F /  0.1 °C 20.5 °F /  -6.4 °C 1016.5 in /  34418.7 hPa SW 6.4 mph /  10.3 km/h 16.1 mph /  25.9 km/h 50 % 0.0 in /  0 mm
12:47 32.2 °F /  0.1 °C 20.5 °F /  -6.4 °C 1016.5 in /  34418.7 hPa West 1.6 mph /  2.6 km/h 16.1 mph /  25.9 km/h 50 % 0.0 in /  0 mm
12:52 32.4 °F /  0.2 °C 20.0 °F /  -6.7 °C 1016.5 in /  34418.7 hPa SW 3.2 mph /  5.1 km/h 16.1 mph /  25.9 km/h 48 % 0.0 in /  0 mm
13:02 32.8 °F /  0.4 °C 19.7 °F /  -6.8 °C 1016.5 in /  34418.7 hPa West 6.4 mph /  10.3 km/h 14.5 mph /  23.3 km/h 46 % 0.0 in /  0 mm
13:12 33.2 °F /  0.7 °C 19.7 °F /  -6.8 °C 1016.5 in /  34418.7 hPa SW 8.0 mph /  12.9 km/h 17.7 mph /  28.5 km/h 45 % 0.0 in /  0 mm
13:17 33.4 °F /  0.8 °C 20.9 °F /  -6.2 °C 1016.5 in /  34418.7 hPa SSW 1.6 mph /  2.6 km/h 14.5 mph /  23.3 km/h 48 % 0.0 in /  0 mm
13:22 33.7 °F /  0.9 °C 19.8 °F /  -6.8 °C 1016.1 in /  34405.1 hPa SE 4.8 mph /  7.7 km/h 14.5 mph /  23.3 km/h 44 % 0.0 in /  0 mm
13:32 33.4 °F /  0.8 °C 19.5 °F /  -6.9 °C 1016.1 in /  34405.1 hPa SW 4.8 mph /  7.7 km/h 14.5 mph /  23.3 km/h 44 % 0.0 in /  0 mm
13:42 33.1 °F /  0.6 °C 19.6 °F /  -6.9 °C 1016.1 in /  34405.1 hPa SSW 3.2 mph /  5.1 km/h 14.5 mph /  23.3 km/h 45 % 0.0 in /  0 mm
13:52 33.4 °F /  0.8 °C 19.8 °F /  -6.8 °C 1016.1 in /  34405.1 hPa SW 14.5 mph /  23.3 km/h 16.1 mph /  25.9 km/h 45 % 0.0 in /  0 mm
13:57 33.2 °F /  0.7 °C 20.4 °F /  -6.4 °C 1016.1 in /  34405.1 hPa Calm   16.1 mph /  25.9 km/h 47 % 0.0 in /  0 mm
14:02 33.3 °F /  0.7 °C 19.8 °F /  -6.8 °C 1016.1 in /  34405.1 hPa West 6.4 mph /  10.3 km/h 16.1 mph /  25.9 km/h 45 % 0.0 in /  0 mm
14:12 33.3 °F /  0.7 °C 19.0 °F /  -7.2 °C 1016.1 in /  34405.1 hPa WSW 1.6 mph /  2.6 km/h 17.7 mph /  28.5 km/h 43 % 0.0 in /  0 mm
14:17 33.4 °F /  0.8 °C 19.5 °F /  -6.9 °C 1016.1 in /  34405.1 hPa SSE 3.2 mph /  5.1 km/h 16.1 mph /  25.9 km/h 44 % 0.0 in /  0 mm
14:22 33.6 °F /  0.9 °C 19.7 °F /  -6.8 °C 1015.8 in /  34395 hPa WSW 11.3 mph /  18.2 km/h 16.1 mph /  25.9 km/h 44 % 0.0 in /  0 mm
14:32 33.5 °F /  0.8 °C 19.9 °F /  -6.7 °C 1015.8 in /  34395 hPa South 8.0 mph /  12.9 km/h 16.1 mph /  25.9 km/h 45 % 0.0 in /  0 mm
14:37 33.6 °F /  0.9 °C 20.4 °F /  -6.4 °C 1015.8 in /  34395 hPa SW 9.7 mph /  15.6 km/h 12.9 mph /  20.8 km/h 46 % 0.0 in /  0 mm
14:42 33.7 °F /  0.9 °C 19.4 °F /  -7 °C 1015.8 in /  34395 hPa West 4.8 mph /  7.7 km/h 12.9 mph /  20.8 km/h 43 % 0.0 in /  0 mm
14:47 33.7 °F /  0.9 °C 19.4 °F /  -7 °C 1015.5 in /  34384.8 hPa WSW 8.0 mph /  12.9 km/h 12.9 mph /  20.8 km/h 43 % 0.0 in /  0 mm
14:52 33.8 °F /  1 °C 19.1 °F /  -7.2 °C 1015.5 in /  34384.8 hPa SSW 4.8 mph /  7.7 km/h 12.9 mph /  20.8 km/h 42 % 0.0 in /  0 mm
15:02 34.0 °F /  1.1 °C 18.9 °F /  -7.3 °C 1015.5 in /  34384.8 hPa WNW 16.1 mph /  25.9 km/h 16.1 mph /  25.9 km/h 41 % 0.0 in /  0 mm
15:07 33.9 °F /  1.1 °C 18.8 °F /  -7.3 °C 1015.5 in /  34384.8 hPa WNW 6.4 mph /  10.3 km/h 20.9 mph /  33.6 km/h 41 % 0.0 in /  0 mm
15:12 34.3 °F /  1.3 °C 18.4 °F /  -7.6 °C 1015.5 in /  34384.8 hPa NNW 4.8 mph /  7.7 km/h 20.9 mph /  33.6 km/h 39 % 0.0 in /  0 mm
15:17 34.2 °F /  1.2 °C 19.1 °F /  -7.2 °C 1015.5 in /  34384.8 hPa SSE 3.2 mph /  5.1 km/h 19.3 mph /  31.1 km/h 41 % 0.0 in /  0 mm
15:22 34.1 °F /  1.2 °C 18.6 °F /  -7.4 °C 1015.1 in /  34371.3 hPa NNW 3.2 mph /  5.1 km/h 19.3 mph /  31.1 km/h 40 % 0.0 in /  0 mm
15:32 34.0 °F /  1.1 °C 18.5 °F /  -7.5 °C 1015.1 in /  34371.3 hPa SW 9.7 mph /  15.6 km/h 14.5 mph /  23.3 km/h 40 % 0.0 in /  0 mm
15:37 34.1 °F /  1.2 °C 19.0 °F /  -7.2 °C 1015.1 in /  34371.3 hPa North 4.8 mph /  7.7 km/h 19.3 mph /  31.1 km/h 41 % 0.0 in /  0 mm
15:42 34.6 °F /  1.4 °C 19.0 °F /  -7.2 °C 1015.1 in /  34371.3 hPa West 6.4 mph /  10.3 km/h 19.3 mph /  31.1 km/h 40 % 0.0 in /  0 mm
15:47 34.4 °F /  1.3 °C 17.6 °F /  -8 °C 1015.1 in /  34371.3 hPa SW 9.7 mph /  15.6 km/h 11.3 mph /  18.2 km/h 37 % 0.0 in /  0 mm
15:52 34.3 °F /  1.3 °C 18.8 °F /  -7.3 °C 1015.1 in /  34371.3 hPa South 1.6 mph /  2.6 km/h 11.3 mph /  18.2 km/h 40 % 0.0 in /  0 mm
16:02 34.4 °F /  1.3 °C 18.8 °F /  -7.3 °C 1015.1 in /  34371.3 hPa SW 8.0 mph /  12.9 km/h 12.9 mph /  20.8 km/h 40 % 0.0 in /  0 mm
16:07 34.4 °F /  1.3 °C 18.8 °F /  -7.3 °C 1015.1 in /  34371.3 hPa SW 14.5 mph /  23.3 km/h 14.5 mph /  23.3 km/h 40 % 0.0 in /  0 mm
16:17 34.2 °F /  1.2 °C 19.1 °F /  -7.2 °C 1015.1 in /  34371.3 hPa SW 8.0 mph /  12.9 km/h 14.5 mph /  23.3 km/h 41 % 0.0 in /  0 mm
16:27 34.6 °F /  1.4 °C 18.6 °F /  -7.4 °C 1015.1 in /  34371.3 hPa WNW 8.0 mph /  12.9 km/h 16.1 mph /  25.9 km/h 39 % 0.0 in /  0 mm
16:32 34.5 °F /  1.4 °C 17.7 °F /  -7.9 °C 1014.8 in /  34361.1 hPa Calm   16.1 mph /  25.9 km/h 37 % 0.0 in /  0 mm
16:42 34.9 °F /  1.6 °C 18.5 °F /  -7.5 °C 1014.8 in /  34361.1 hPa West 6.4 mph /  10.3 km/h 16.1 mph /  25.9 km/h 38 % 0.0 in /  0 mm
16:47 34.7 °F /  1.5 °C 18.7 °F /  -7.4 °C 1014.8 in /  34361.1 hPa SW 4.8 mph /  7.7 km/h 14.5 mph /  23.3 km/h 39 % 0.0 in /  0 mm
16:52 34.6 °F /  1.4 °C 19.0 °F /  -7.2 °C 1014.8 in /  34361.1 hPa SW 9.7 mph /  15.6 km/h 14.5 mph /  23.3 km/h 40 % 0.0 in /  0 mm
17:02 34.6 °F /  1.4 °C 18.2 °F /  -7.7 °C 1014.8 in /  34361.1 hPa NNW 4.8 mph /  7.7 km/h 17.7 mph /  28.5 km/h 38 % 0.0 in /  0 mm
17:07 34.5 °F /  1.4 °C 18.1 °F /  -7.7 °C 1014.4 in /  34347.6 hPa WNW 3.2 mph /  5.1 km/h 17.7 mph /  28.5 km/h 38 % 0.0 in /  0 mm
17:12 34.4 °F /  1.3 °C 18.0 °F /  -7.8 °C 1014.4 in /  34347.6 hPa SW 14.5 mph /  23.3 km/h 17.7 mph /  28.5 km/h 38 % 0.0 in /  0 mm
17:17 34.5 °F /  1.4 °C 18.1 °F /  -7.7 °C 1014.8 in /  34361.1 hPa West 12.9 mph /  20.8 km/h 19.3 mph /  31.1 km/h 38 % 0.0 in /  0 mm
17:22 34.4 °F /  1.3 °C 17.2 °F /  -8.2 °C 1014.4 in /  34347.6 hPa WNW 9.7 mph /  15.6 km/h 19.3 mph /  31.1 km/h 36 % 0.0 in /  0 mm
17:32 34.4 °F /  1.3 °C 17.6 °F /  -8 °C 1014.4 in /  34347.6 hPa SSW 6.4 mph /  10.3 km/h 17.7 mph /  28.5 km/h 37 % 0.0 in /  0 mm
17:42 34.8 °F /  1.6 °C 18.8 °F /  -7.3 °C 1014.4 in /  34347.6 hPa SSW 4.8 mph /  7.7 km/h 14.5 mph /  23.3 km/h 39 % 0.0 in /  0 mm
17:47 34.6 °F /  1.4 °C 18.6 °F /  -7.4 °C 1014.4 in /  34347.6 hPa SW 9.7 mph /  15.6 km/h 20.9 mph /  33.6 km/h 39 % 0.0 in /  0 mm
17:52 34.6 °F /  1.4 °C 18.6 °F /  -7.4 °C 1014.4 in /  34347.6 hPa SSW 9.7 mph /  15.6 km/h 20.9 mph /  33.6 km/h 39 % 0.0 in /  0 mm
17:57 34.8 °F /  1.6 °C 18.0 °F /  -7.8 °C 1014.4 in /  34347.6 hPa SW 4.8 mph /  7.7 km/h 20.9 mph /  33.6 km/h 37 % 0.0 in /  0 mm
18:02 34.8 °F /  1.6 °C 18.8 °F /  -7.3 °C 1014.4 in /  34347.6 hPa SW 3.2 mph /  5.1 km/h 20.9 mph /  33.6 km/h 39 % 0.0 in /  0 mm
18:12 34.9 °F /  1.6 °C 18.9 °F /  -7.3 °C 1014.4 in /  34347.6 hPa Calm   12.9 mph /  20.8 km/h 39 % 0.0 in /  0 mm
18:17 35.4 °F /  1.9 °C 18.9 °F /  -7.3 °C 1014.4 in /  34347.6 hPa NNE 3.2 mph /  5.1 km/h 11.3 mph /  18.2 km/h 38 % 0.0 in /  0 mm
18:22 35.3 °F /  1.8 °C 18.0 °F /  -7.8 °C 1014.4 in /  34347.6 hPa WNW 3.2 mph /  5.1 km/h 8.0 mph /  12.9 km/h 36 % 0.0 in /  0 mm
18:27 35.0 °F /  1.7 °C 18.6 °F /  -7.4 °C 1014.4 in /  34347.6 hPa West 4.8 mph /  7.7 km/h 8.0 mph /  12.9 km/h 38 % 0.0 in /  0 mm
18:32 35.1 °F /  1.7 °C 18.6 °F /  -7.4 °C 1014.4 in /  34347.6 hPa WSW 3.2 mph /  5.1 km/h 9.7 mph /  15.6 km/h 38 % 0.0 in /  0 mm
18:37 35.0 °F /  1.7 °C 17.7 °F /  -7.9 °C 1014.4 in /  34347.6 hPa NW 8.0 mph /  12.9 km/h 9.7 mph /  15.6 km/h 36 % 0.0 in /  0 mm
18:42 34.8 °F /  1.6 °C 18.4 °F /  -7.6 °C 1014.4 in /  34347.6 hPa SSW 4.8 mph /  7.7 km/h 9.7 mph /  15.6 km/h 38 % 0.0 in /  0 mm
18:47 34.9 °F /  1.6 °C 18.5 °F /  -7.5 °C 1014.4 in /  34347.6 hPa SW 3.2 mph /  5.1 km/h 12.9 mph /  20.8 km/h 38 % 0.0 in /  0 mm
18:52 34.8 °F /  1.6 °C 18.4 °F /  -7.6 °C 1014.4 in /  34347.6 hPa SSW 1.6 mph /  2.6 km/h 12.9 mph /  20.8 km/h 38 % 0.0 in /  0 mm
18:57 35.2 °F /  1.8 °C 18.7 °F /  -7.4 °C 1014.4 in /  34347.6 hPa Calm   6.4 mph /  10.3 km/h 38 % 0.0 in /  0 mm
19:02 35.7 °F /  2.1 °C 18.3 °F /  -7.6 °C 1014.4 in /  34347.6 hPa NE 3.2 mph /  5.1 km/h 6.4 mph /  10.3 km/h 36 % 0.0 in /  0 mm
19:12 35.4 °F /  1.9 °C 18.5 °F /  -7.5 °C 1014.4 in /  34347.6 hPa West 4.8 mph /  7.7 km/h 4.8 mph /  7.7 km/h 37 % 0.0 in /  0 mm
19:17 35.4 °F /  1.9 °C 18.9 °F /  -7.3 °C 1014.4 in /  34347.6 hPa WNW 3.2 mph /  5.1 km/h 8.0 mph /  12.9 km/h 38 % 0.0 in /  0 mm
19:22 35.4 °F /  1.9 °C 18.9 °F /  -7.3 °C 1014.4 in /  34347.6 hPa WNW 3.2 mph /  5.1 km/h 8.0 mph /  12.9 km/h 38 % 0.0 in /  0 mm
19:32 35.1 °F /  1.7 °C 18.2 °F /  -7.7 °C 1014.4 in /  34347.6 hPa WNW 3.2 mph /  5.1 km/h 8.0 mph /  12.9 km/h 37 % 0.0 in /  0 mm
19:37 35.2 °F /  1.8 °C 18.3 °F /  -7.6 °C 1014.4 in /  34347.6 hPa West 3.2 mph /  5.1 km/h 8.0 mph /  12.9 km/h 37 % 0.0 in /  0 mm
19:42 35.3 °F /  1.8 °C 18.8 °F /  -7.3 °C 1014.8 in /  34361.1 hPa West 1.6 mph /  2.6 km/h 8.0 mph /  12.9 km/h 38 % 0.0 in /  0 mm
19:47 35.2 °F /  1.8 °C 18.3 °F /  -7.6 °C 1014.4 in /  34347.6 hPa WNW 1.6 mph /  2.6 km/h 4.8 mph /  7.7 km/h 37 % 0.0 in /  0 mm
19:52 35.3 °F /  1.8 °C 18.4 °F /  -7.6 °C 1014.4 in /  34347.6 hPa Calm   4.8 mph /  7.7 km/h 37 % 0.0 in /  0 mm
20:02 34.9 °F /  1.6 °C 18.0 °F /  -7.8 °C 1014.8 in /  34361.1 hPa Calm   4.8 mph /  7.7 km/h 37 % 0.0 in /  0 mm
20:07 34.9 °F /  1.6 °C 18.5 °F /  -7.5 °C 1014.8 in /  34361.1 hPa Calm   6.4 mph /  10.3 km/h 38 % 0.0 in /  0 mm
20:12 35.1 °F /  1.7 °C 18.6 °F /  -7.4 °C 1014.8 in /  34361.1 hPa Calm   6.4 mph /  10.3 km/h 38 % 0.0 in /  0 mm
20:17 34.8 °F /  1.6 °C 18.8 °F /  -7.3 °C 1014.8 in /  34361.1 hPa Calm   3.2 mph /  5.1 km/h 39 % 0.0 in /  0 mm
20:22 34.7 °F /  1.5 °C 18.7 °F /  -7.4 °C 1014.8 in /  34361.1 hPa Calm   3.2 mph /  5.1 km/h 39 % 0.0 in /  0 mm
20:32 34.3 °F /  1.3 °C 19.5 °F /  -6.9 °C 1015.1 in /  34371.3 hPa Calm   3.2 mph /  5.1 km/h 42 % 0.0 in /  0 mm
20:37 34.5 °F /  1.4 °C 19.7 °F /  -6.8 °C 1015.1 in /  34371.3 hPa Calm     42 % 0.0 in /  0 mm
20:42 34.7 °F /  1.5 °C 21.4 °F /  -5.9 °C 1015.1 in /  34371.3 hPa Calm     46 % 0.0 in /  0 mm
20:47 34.2 °F /  1.2 °C 20.2 °F /  -6.6 °C 1015.1 in /  34371.3 hPa Calm     44 % 0.0 in /  0 mm
20:52 33.9 °F /  1.1 °C 20.3 °F /  -6.5 °C 1015.1 in /  34371.3 hPa Calm     45 % 0.0 in /  0 mm
21:02 33.4 °F /  0.8 °C 20.9 °F /  -6.2 °C 1015.1 in /  34371.3 hPa Calm     48 % 0.0 in /  0 mm
21:07 33.3 °F /  0.7 °C 20.5 °F /  -6.4 °C 1015.1 in /  34371.3 hPa Calm     47 % 0.0 in /  0 mm
21:12 33.1 °F /  0.6 °C 20.6 °F /  -6.3 °C 1015.1 in /  34371.3 hPa Calm     48 % 0.0 in /  0 mm
21:22 32.3 °F /  0.2 °C 20.2 °F /  -6.6 °C 1015.1 in /  34371.3 hPa Calm     49 % 0.0 in /  0 mm
21:32 31.3 °F /  -0.4 °C 20.3 °F /  -6.5 °C 1015.5 in /  34384.8 hPa Calm     52 % 0.0 in /  0 mm
21:42 30.3 °F /  -0.9 °C 20.5 °F /  -6.4 °C 1015.5 in /  34384.8 hPa Calm     56 % 0.0 in /  0 mm
21:52 29.6 °F /  -1.3 °C 20.2 °F /  -6.6 °C 1015.5 in /  34384.8 hPa Calm     57 % 0.0 in /  0 mm
22:02 28.9 °F /  -1.7 °C 20.6 °F /  -6.3 °C 1015.5 in /  34384.8 hPa Calm     61 % 0.0 in /  0 mm
22:12 28.5 °F /  -1.9 °C 20.2 °F /  -6.6 °C 1015.5 in /  34384.8 hPa Calm     61 % 0.0 in /  0 mm
22:17 28.3 °F /  -2.1 °C 20.1 °F /  -6.6 °C 1015.5 in /  34384.8 hPa Calm     61 % 0.0 in /  0 mm
22:22 28.4 °F /  -2 °C 20.4 °F /  -6.4 °C 1015.5 in /  34384.8 hPa Calm     62 % 0.0 in /  0 mm
22:27 28.3 °F /  -2.1 °C 20.6 °F /  -6.3 °C 1015.8 in /  34395 hPa Calm     63 % 0.0 in /  0 mm
22:32 28.1 °F /  -2.2 °C 19.9 °F /  -6.7 °C 1015.8 in /  34395 hPa Calm     61 % 0.0 in /  0 mm
22:42 27.6 °F /  -2.4 °C 19.9 °F /  -6.7 °C 1015.8 in /  34395 hPa Calm     63 % 0.0 in /  0 mm
22:52 27.3 °F /  -2.6 °C 20.1 °F /  -6.6 °C 1015.8 in /  34395 hPa Calm     65 % 0.0 in /  0 mm
22:57 27.3 °F /  -2.6 °C 20.1 °F /  -6.6 °C 1015.8 in /  34395 hPa Calm     65 % 0.0 in /  0 mm
23:02 27.2 °F /  -2.7 °C 20.3 °F /  -6.5 °C 1015.8 in /  34395 hPa Calm     66 % 0.0 in /  0 mm
23:12 26.9 °F /  -2.8 °C 20.3 °F /  -6.5 °C 1015.8 in /  34395 hPa Calm     67 % 0.0 in /  0 mm
23:17 26.7 °F /  -2.9 °C 20.3 °F /  -6.5 °C 1015.8 in /  34395 hPa Calm     68 % 0.0 in /  0 mm
23:22 26.4 °F /  -3.1 °C 20.3 °F /  -6.5 °C 1015.8 in /  34395 hPa Calm     69 % 0.0 in /  0 mm
23:27 26.3 °F /  -3.2 °C 20.2 °F /  -6.6 °C 1015.8 in /  34395 hPa Calm     69 % 0.0 in /  0 mm
23:32 26.0 °F /  -3.3 °C 20.1 °F /  -6.6 °C 1015.8 in /  34395 hPa Calm     70 % 0.0 in /  0 mm
23:42 25.8 °F /  -3.4 °C 20.4 °F /  -6.4 °C 1015.8 in /  34395 hPa Calm     72 % 0.0 in /  0 mm
23:47 25.9 °F /  -3.4 °C 20.2 °F /  -6.6 °C 1015.8 in /  34395 hPa Calm     71 % 0.0 in /  0 mm
23:52 25.8 °F /  -3.4 °C 20.1 °F /  -6.6 °C 1015.8 in /  34395 hPa Calm     71 % 0.0 in /  0 mm
Meteo18
Compliments of Weather Underground - 4 mb

Script developed by  Jim McMurry - jmcmurry@mwt.net Adapted for the template by  Wim van der Kuil - Leuven-Template.eu

You find our weather info also at:

European Weather Network

Weather Underground

Equipment we use:

Weather-station
Davis Vue

Weather-program
Meteobridge

Weather-server
Raspberry PI 2 B+

Provider
1 and 1

Davis Vue

Meteobridge

Raspberry PI 2 B+

1 and 1